STARLINK-1577, 46063

Orbit data source: Space-Track

STARLINK-1577, 46063 is a payload satellite owned by SpaceX/Seattle (US) in LEO that was launched on Fri, 07 Aug 2020 UTC via an FALCON 9 launch vehicle from the Air Force Eastern Test Range (AFETR). Payload-class satellites include a variety of spacecraft equipped with specific instruments for various scientific and technological missions. These include communications satellites like Starlink; space stations such as the ISS; scientific satellites like the Hubble; Earth observation satellites from companies like Planet Labs, Umbra, and HawkEye 360; GPS; miniature CubeSats for education and research; and military/defense satellites.

Loading next visibility...
Identifier
46063, 2020-055AN
Orbit
LEO
Country
Flag of USUS
Related business
Manufacturer
SpaceX/Seattle
Mission
Operational Commercial Communications
Bus & Motor
STARLINK, Unknown motor
Mass
260 kg wet, ~248 kg dry
Launch date (UTC)
2020-08-07 (6 years ago)
Launch vehicle
FALCON 9
Launch site
Air Force Eastern Test Range (AFETR)
Object type
Payload
Rocket body
Debris
Shape & HBR
Box + 1 Pan, 10.1 m
Radar Cross Section
13.562 m², Large (>1 m²)

Expand to show TLE details & history
Last TLE update: 11 hours ago

TLE from 11 hours ago
0 STARLINK-1577
1 46063U 20055AN  26122.98205497 -.00000440  00000-0 -23950-5 0  9992
2 46063  53.1601 221.4631 0001281  85.6207 274.4941 15.31711664317384
Epoch: 2026-05-02T23:34Z
TLE epoch observation values (Epoch: 2026-05-02T23:34:09.549Z)
Latitude
-0°
Longitude
7.03116°
Altitude
471.537 km
Speed
7.632 km/s
True Right ascension
14h 45m 51s
True Declination
0° 00' 00"
Sunlit
Object was in full shadow at epoch
Visualization orbit readout
Latitude
Unknown
Longitude
Unknown
Altitude
Unknown
Speed
Unknown
Apparent Right ascension
Unknown
Apparent Declination
Unknown
Sunlit
N/A
Visualization observer readout
Local Sidereal Time
18:36:47
Azimuth
Unknown
Elevation
Unknown
Doppler factor
Unknown
Orbital elements
Apogee altitude
471.839 km
Perigee altitude
470.084 km
Semi-major axis
6,849.099 km
Eccentricity
0.00013
Inclination
53.1601°
RAAN
221.4631°
Arg. of periapsis
85.6207°
True anomaly
274.47947°
Mean anomaly
274.4941°
Eccentric anomaly
274.48678°
Mean motion
3.82907 °/min
Orbital period
94.02 mins
BSTAR
-0.000002395
Loading maneuver chart data...
Computing Atmospheric mass density...
Loading historical data...
Loading historical data...
Loading historical data...
Loading historical data...
Loading historical data...
Loading historical data...
Loading historical data...

Documentation

Showing up to 5 results
|